Location: Lancaster
(34.6980°N, 118.1360°W)
Time: 18:07:01
(UTC-08:00)

N. Korean satellite - Pass Details

Date: 16 November 2017
Orbit: 460 x 514 km, 97.2° (Epoch: 22 November)

Event Time Altitude Azimuth Distance (km) Brightness Sun altitude
Rises 18:05:57 0° 174° (S) 2,471 10.2 -16.4°
Reaches altitude 10° 18:07:59 10° 177° (S) 1,604 9.3 -16.8°
Maximum altitude 18:11:23 64° 259° (W) 520 6.9 -17.5°
Drops below altitude 10° 18:14:52 10° 342° (NNW) 1,635 9.3 -18.2°
Sets 18:16:58 0° 346° (NNW) 2,525 10.3 -18.6°
